Location: Newark
(13.6797°N, 8.5297°E)
Time: 18:02:40
(UTC+00:00)

Courier 1B Rocket - Pass Details

Date: 22 January 2020
Orbit: 920 x 1202 km, 28.2° (Epoch: 22 February)

Event Time Altitude Azimuth Distance (km) Brightness Sun altitude
Rises 08:08:47 0° 220° (SW) 4,068 8.2 28.8°
Reaches altitude 10° 08:12:00 10° 211° (SSW) 3,082 7.7 29.4°
Maximum altitude 08:18:40 33° 150° (SSE) 1,812 8.0 30.8°
Drops below altitude 10° 08:25:00 10° 89° (E) 2,925 8.4 32.1°
Sets 08:27:58 0° 79° (E) 3,835 8.7 32.7°
